| time (UTC) | temp F | wind direction | speed MPH | gust MPH | rain 1hr in | rain 24hr in | rain mn in | humidity % | barometer mb |
| 20260503221517 | 75 | 237 | 6.0 | 10.0 | 0.00 | 0.00 | 0.00 | 23 | 1013.0 |
| 20260503220012 | 73 | 240 | 4.0 | 11.0 | 0.00 | 0.00 | 0.00 | 24 | 1013.3 |
| 20260503214511 | 72 | 352 | 6.0 | 10.0 | 0.00 | 0.00 | 0.00 | 26 | 1013.5 |
| 20260503213012 | 73 | 269 | 5.0 | 10.0 | 0.00 | 0.00 | 0.00 | 25 | 1013.6 |
| 20260503211516 | 74 | 238 | 5.0 | 10.0 | 0.00 | 0.00 | 0.00 | 24 | 1013.8 |
| 20260503210014 | 72 | 184 | 2.0 | 7.0 | 0.00 | 0.00 | 0.00 | 28 | 1014.1 |
| 20260503204515 | 71 | 317 | 3.0 | 7.0 | 0.00 | 0.00 | 0.00 | 34 | 1014.1 |
| 20260503203016 | 70 | 55 | 0.0 | 5.0 | 0.00 | 0.00 | 0.00 | 33 | 1014.2 |
| 20260503201518 | 70 | 74 | 3.0 | 13.0 | 0.00 | 0.00 | 0.00 | 33 | 1014.5 |
| 20260503200012 | 70 | 314 | 2.0 | 10.0 | 0.00 | 0.00 | 0.00 | 30 | 1014.7 |
| 20260503194511 | 70 | 161 | 1.0 | 7.0 | 0.00 | 0.00 | 0.00 | 34 | 1014.9 |
| 20260503193018 | 68 | 47 | 4.0 | 9.0 | 0.00 | 0.00 | 0.00 | 36 | 1015.1 |
| 20260503191527 | 69 | 68 | 3.0 | 6.0 | 0.00 | 0.00 | 0.00 | 32 | 1015.4 |
| 20260503190020 | 68 | 76 | 5.0 | 8.0 | 0.00 | 0.00 | 0.00 | 37 | 1015.7 |
| 20260503184520 | 67 | 86 | 2.0 | 4.0 | 0.00 | 0.00 | 0.00 | 38 | 1015.8 |
| 20260503183019 | 66 | 104 | 0.0 | 3.0 | 0.00 | 0.00 | 0.00 | 39 | 1016.1 |
| 20260503181518 | 65 | 49 | 2.0 | 4.0 | 0.00 | 0.00 | 0.00 | 43 | 1016.3 |
| 20260503180016 | 63 | 11 | 0.0 | 3.0 | 0.00 | 0.00 | 0.00 | 42 | 1016.6 |
| 20260503174515 | 62 | 55 | 3.0 | 4.0 | 0.00 | 0.00 | 0.00 | 44 | 1016.8 |
| 20260503173028 | 61 | 21 | 1.0 | 3.0 | 0.00 | 0.00 | 0.00 | 49 | 1017.0 |
| 20260503171522 | 60 | 333 | 3.0 | 5.0 | 0.00 | 0.00 | 0.00 | 43 | 1017.2 |
| 20260503081525 | 50 | 153 | 5.0 | 11.0 | 0.00 | 0.00 | 0.00 | 51 | 1017.3 |
| 20260503071522 | 52 | 125 | 4.0 | 11.0 | 0.00 | 0.00 | 0.00 | 49 | 1017.3 |
| 20260503054508 | 52 | 142 | 7.0 | 11.0 | 0.00 | 0.00 | 0.00 | 49 | 1017.2 |
| 20260503053006 | 53 | 129 | 9.0 | 12.0 | 0.00 | 0.00 | 0.00 | 48 | 1017.0 |
| 20260503050034 | 54 | 129 | 9.0 | 12.0 | 0.00 | 0.00 | 0.00 | 48 | 1016.8 |
| 20260503044522 | 55 | 120 | 11.0 | 15.0 | 0.00 | 0.00 | 0.00 | 46 | 1016.7 |
| 20260503043030 | 55 | 141 | 8.0 | 12.0 | 0.00 | 0.00 | 0.00 | 47 | 1016.6 |
| 20260503041518 | 56 | 130 | 10.0 | 12.0 | 0.00 | 0.00 | 0.00 | 46 | 1016.6 |
| 20260503040016 | 56 | 128 | 8.0 | 11.0 | 0.00 | 0.00 | 0.00 | 46 | 1016.6 |
| 20260503033007 | 60 | 134 | 3.0 | 5.0 | 0.00 | 0.00 | 0.00 | 43 | 1016.3 |
| 20260503031525 | 61 | 167 | 2.0 | 5.0 | 0.00 | 0.00 | 0.00 | 39 | 1016.2 |
| 20260503030028 | 62 | 90 | 1.0 | 2.0 | 0.00 | 0.00 | 0.00 | 39 | 1016.1 |
| 20260503024522 | 62 | 90 | 0.0 | 3.0 | 0.00 | 0.00 | 0.00 | 41 | 1016.0 |
| 20260503023021 | 63 | 76 | 1.0 | 2.0 | 0.00 | 0.00 | 0.00 | 43 | 1016.0 |
| 20260503021522 | 64 | 62 | 1.0 | 2.0 | 0.00 | 0.00 | 0.00 | 43 | 1016.0 |
| 20260503020022 | 65 | 17 | 2.0 | 4.0 | 0.00 | 0.00 | 0.00 | 1015.9 | |
| 20260503014527 | 66 | 350 | 2.0 | 4.0 | 0.00 | 0.00 | 0.00 | 36 | 1015.9 |
| 20260503011524 | 68 | 347 | 3.0 | 8.0 | 0.00 | 0.00 | 0.00 | 37 | 1016.0 |
| 20260503010027 | 68 | 336 | 3.0 | 6.0 | 0.00 | 0.00 | 0.00 | 37 | 1016.1 |
| 20260503004526 | 68 | 321 | 3.0 | 7.0 | 0.00 | 0.00 | 0.00 | 34 | 1016.0 |
| 20260503003023 | 69 | 352 | 4.0 | 7.0 | 0.00 | 0.00 | 0.00 | 31 | 1015.9 |
| 20260503001524 | 69 | 51 | 5.0 | 8.0 | 0.00 | 0.00 | 0.00 | 28 | 1016.0 |
| 20260503000018 | 70 | 5 | 5.0 | 8.0 | 0.00 | 0.00 | 0.00 | 25 | 1016.0 |
| 20260502234529 | 70 | 13 | 3.0 | 8.0 | 0.00 | 0.00 | 0.00 | 24 | 1016.0 |
| 20260502233028 | 70 | 352 | 3.0 | 8.0 | 0.00 | 0.00 | 0.00 | 26 | 1016.1 |
| 20260502231526 | 70 | 42 | 6.0 | 9.0 | 0.00 | 0.00 | 0.00 | 29 | 1016.2 |
| 20260502230033 | 69 | 45 | 5.0 | 10.0 | 0.00 | 0.00 | 0.00 | 24 | 1016.5 |
| 20260502224525 | 69 | 14 | 5.0 | 9.0 | 0.00 | 0.00 | 0.00 | 27 | 1016.6 |
| 20260502223024 | 69 | 42 | 6.0 | 11.0 | 0.00 | 0.00 | 0.00 | 32 | 1016.9 |